Location: Oberwangen
(47.4286°N, 8.9679°E)
Time: 23:37:17
(UTC+00:00)

GEOS 3 Rocket - Pass Details

Date: 20 June 2021
Orbit: 779 x 840 km, 115.0° (Epoch: 23 July)

Event Time Altitude Azimuth Distance (km) Brightness Sun altitude
Exits shadow 22:38:08 30° 149° (SSE) 1,449 4.4 -18.3°
Maximum altitude 22:40:51 78° 231° (SW) 862 3.6 -18.4°
Drops below altitude 10° 22:46:12 10° 318° (NW) 2,452 7.0 -18.6°
Sets 22:48:32 0° 320° (NW) 3,384 7.9 -18.6°
